TimeCDT,TemperatureF,Dew PointF,Humidity,Sea Level PressureIn,VisibilityMPH,Wind Direction,Wind SpeedMPH,Gust SpeedMPH,PrecipitationIn,Events,Conditions,WindDirDegrees,DateUTC
12:10 AM,12.2,10.4,92,29.81,10.0,WSW,3.5,-,N/A,,Overcast,240,2013-03-12 05:10:00
12:30 AM,12.2,8.6,85,29.81,10.0,Calm,Calm,-,N/A,,Overcast,0,2013-03-12 05:30:00
12:50 AM,12.2,8.6,85,29.81,10.0,Calm,Calm,-,N/A,,Overcast,0,2013-03-12 05:50:00
1:10 AM,12.2,8.6,85,29.81,10.0,WSW,4.6,-,N/A,,Overcast,240,2013-03-12 06:10:00
1:30 AM,12.2,8.6,85,29.81,10.0,Calm,Calm,-,N/A,,Overcast,0,2013-03-12 06:30:00
1:50 AM,12.2,8.6,85,29.81,10.0,Calm,Calm,-,N/A,,Overcast,0,2013-03-12 06:50:00
2:10 AM,12.2,10.4,92,29.82,10.0,West,4.6,-,N/A,,Overcast,280,2013-03-12 07:10:00
2:31 AM,14.0,10.4,86,29.82,10.0,WNW,3.5,-,N/A,,Overcast,290,2013-03-12 07:31:00
2:50 AM,14.0,10.4,86,29.83,10.0,WNW,3.5,-,N/A,,Overcast,300,2013-03-12 07:50:00
3:10 AM,15.8,10.4,79,29.83,10.0,NW,5.8,-,N/A,,Overcast,320,2013-03-12 08:10:00
3:31 AM,15.8,10.4,79,29.83,10.0,NW,3.5,-,N/A,,Overcast,320,2013-03-12 08:31:00
3:50 AM,15.8,10.4,79,29.83,10.0,NW,3.5,-,N/A,,Overcast,310,2013-03-12 08:50:00
4:10 AM,15.8,10.4,79,29.84,10.0,NW,3.5,-,N/A,,Overcast,310,2013-03-12 09:10:00
4:30 AM,15.8,10.4,79,29.84,10.0,NNW,4.6,-,N/A,,Overcast,330,2013-03-12 09:30:00
4:50 AM,15.8,10.4,79,29.85,10.0,NW,4.6,-,N/A,,Overcast,320,2013-03-12 09:50:00
5:10 AM,14.0,10.4,86,29.86,10.0,NW,5.8,-,N/A,,Overcast,320,2013-03-12 10:10:00
5:30 AM,14.0,10.4,86,29.86,10.0,NNW,4.6,-,N/A,,Overcast,330,2013-03-12 10:30:00
5:50 AM,14.0,10.4,86,29.87,10.0,NNW,3.5,-,N/A,,Mostly Cloudy,340,2013-03-12 10:50:00
6:10 AM,12.2,8.6,85,29.87,10.0,NNW,4.6,-,N/A,,Scattered Clouds,340,2013-03-12 11:10:00
6:30 AM,14.0,10.4,86,29.88,10.0,NNW,4.6,-,N/A,,Overcast,330,2013-03-12 11:30:00
6:50 AM,12.2,8.6,85,29.89,10.0,NW,5.8,-,N/A,,Overcast,310,2013-03-12 11:50:00
7:10 AM,12.2,8.6,85,29.90,10.0,NNW,4.6,-,N/A,,Overcast,330,2013-03-12 12:10:00
7:30 AM,12.2,8.6,85,29.90,10.0,NW,3.5,-,N/A,,Overcast,320,2013-03-12 12:30:00
7:50 AM,12.2,8.6,85,29.91,10.0,NW,4.6,-,N/A,,Scattered Clouds,320,2013-03-12 12:50:00
8:10 AM,10.4,8.6,92,29.92,10.0,NNW,5.8,-,N/A,,Clear,340,2013-03-12 13:10:00
8:30 AM,12.2,8.6,85,29.93,10.0,NNW,4.6,-,N/A,,Clear,340,2013-03-12 13:30:00
8:50 AM,12.2,8.6,85,29.94,10.0,NNW,4.6,-,N/A,,Scattered Clouds,340,2013-03-12 13:50:00
9:10 AM,14.0,10.4,86,29.95,10.0,NNW,5.8,-,N/A,,Clear,340,2013-03-12 14:10:00
9:30 AM,15.8,8.6,73,29.96,10.0,North,8.1,-,N/A,,Clear,350,2013-03-12 14:30:00
9:50 AM,17.6,8.6,68,29.96,10.0,North,8.1,-,N/A,,Clear,360,2013-03-12 14:50:00
10:10 AM,17.6,8.6,68,29.97,10.0,NNW,9.2,16.1,N/A,,Clear,330,2013-03-12 15:10:00
10:30 AM,19.4,8.6,63,29.97,10.0,North,12.7,17.3,N/A,,Clear,360,2013-03-12 15:30:00
10:50 AM,21.2,8.6,58,29.98,10.0,NNW,9.2,19.6,N/A,,Clear,340,2013-03-12 15:50:00
11:10 AM,19.4,8.6,63,29.99,10.0,North,8.1,-,N/A,,Clear,350,2013-03-12 16:10:00
11:30 AM,21.2,8.6,58,29.99,10.0,NNW,9.2,-,N/A,,Clear,330,2013-03-12 16:30:00
11:50 AM,23.0,8.6,54,30.00,10.0,NNW,10.4,-,N/A,,Clear,330,2013-03-12 16:50:00
12:10 PM,23.0,8.6,54,30.00,10.0,NW,10.4,17.3,N/A,,Clear,320,2013-03-12 17:10:00
12:30 PM,24.8,8.6,50,30.01,10.0,NNW,10.4,-,N/A,,Clear,330,2013-03-12 17:30:00
12:50 PM,24.8,8.6,50,30.02,10.0,NW,10.4,16.1,N/A,,Clear,320,2013-03-12 17:50:00
1:10 PM,24.8,8.6,50,30.02,10.0,NNW,9.2,-,N/A,,Clear,330,2013-03-12 18:10:00
1:30 PM,24.8,8.6,50,30.03,10.0,NW,11.5,16.1,N/A,,Clear,320,2013-03-12 18:30:00
1:50 PM,26.6,8.6,47,30.03,10.0,WNW,9.2,-,N/A,,Clear,300,2013-03-12 18:50:00
2:10 PM,26.6,10.4,51,30.03,10.0,NW,11.5,16.1,N/A,,Clear,310,2013-03-12 19:10:00
2:30 PM,26.6,8.6,47,30.04,10.0,NW,11.5,18.4,N/A,,Clear,310,2013-03-12 19:30:00
2:50 PM,26.6,8.6,47,30.04,10.0,NW,10.4,-,N/A,,Clear,320,2013-03-12 19:50:00
3:10 PM,24.8,8.6,50,30.05,10.0,NW,9.2,-,N/A,,Clear,320,2013-03-12 20:10:00
3:30 PM,26.6,8.6,47,30.05,10.0,NW,10.4,-,N/A,,Clear,320,2013-03-12 20:30:00
3:50 PM,26.6,8.6,47,30.06,10.0,NW,9.2,16.1,N/A,,Clear,320,2013-03-12 20:50:00
4:10 PM,24.8,8.6,50,30.07,10.0,NW,10.4,-,N/A,,Clear,310,2013-03-12 21:10:00
4:30 PM,26.6,6.8,43,30.07,10.0,NW,10.4,-,N/A,,Clear,320,2013-03-12 21:30:00
4:50 PM,26.6,8.6,47,30.07,10.0,NNW,9.2,-,N/A,,Clear,340,2013-03-12 21:50:00
5:10 PM,26.6,6.8,43,30.08,10.0,NNW,8.1,16.1,N/A,,Clear,340,2013-03-12 22:10:00
5:30 PM,26.6,6.8,43,30.09,10.0,NNW,11.5,-,N/A,,Clear,340,2013-03-12 22:30:00
5:50 PM,26.6,6.8,43,30.09,10.0,North,10.4,-,N/A,,Clear,350,2013-03-12 22:50:00
6:10 PM,26.6,6.8,43,30.09,10.0,North,10.4,-,N/A,,Clear,360,2013-03-12 23:10:00
6:30 PM,24.8,6.8,46,30.10,10.0,North,9.2,-,N/A,,Clear,350,2013-03-12 23:30:00
6:50 PM,24.8,6.8,46,30.11,10.0,NNW,3.5,-,N/A,,Clear,340,2013-03-12 23:50:00
7:10 PM,23.0,6.8,50,30.12,10.0,NNW,4.6,-,N/A,,Clear,340,2013-03-13 00:10:00
7:30 PM,21.2,6.8,54,30.12,10.0,NW,4.6,-,N/A,,Clear,320,2013-03-13 00:30:00
7:50 PM,19.4,6.8,58,30.13,10.0,WNW,3.5,-,N/A,,Clear,300,2013-03-13 00:50:00
8:10 PM,17.6,6.8,63,30.14,10.0,Calm,Calm,-,N/A,,Clear,0,2013-03-13 01:10:00
8:30 PM,15.8,5.0,62,30.15,10.0,WNW,3.5,-,N/A,,Clear,290,2013-03-13 01:30:00
8:50 PM,14.0,3.2,62,30.15,10.0,WNW,3.5,-,N/A,,Clear,290,2013-03-13 01:50:00
9:10 PM,14.0,3.2,62,30.16,10.0,WNW,3.5,-,N/A,,Clear,290,2013-03-13 02:10:00
9:30 PM,12.2,3.2,67,30.17,10.0,WNW,3.5,-,N/A,,Clear,290,2013-03-13 02:30:00
9:50 PM,10.4,1.4,67,30.17,10.0,West,4.6,-,N/A,,Clear,280,2013-03-13 02:50:00
9:56 PM,10.4,1.4,67,30.17,10.0,WNW,4.6,-,N/A,,Clear,290,2013-03-13 02:56:00
10:30 PM,8.6,1.4,73,30.18,10.0,WNW,3.5,-,N/A,,Clear,290,2013-03-13 03:30:00
10:50 PM,8.6,1.4,73,30.18,10.0,WSW,3.5,-,N/A,,Clear,250,2013-03-13 03:50:00
11:10 PM,6.8,1.4,79,30.18,10.0,Calm,Calm,-,N/A,,Clear,0,2013-03-13 04:10:00
11:30 PM,5.0,1.4,85,30.19,10.0,West,3.5,-,N/A,,Clear,260,2013-03-13 04:30:00
11:50 PM,5.0,1.4,85,30.20,10.0,West,5.8,-,N/A,,Clear,260,2013-03-13 04:50:00